Weather in Chitral

Pakistan     35°51′03″N   71°46′55″E
temp.,
°C
wind,
m/s
gust,
m/s
humid.,
%
clouds,
%
prec.,
mm/h
press.,
hPa
HPBL,
m
12 may, wed
wed1223:00+9nw3355100 0.2 101264
02:00+7nw33530 0.0 101239
05:00+6nw33530 0.0 101329
08:00+10nnw23390 0.0 1011612
11:00+14n12301 0.0 10091763
14:00+16s222622 0.1 10052566
17:00+15ssw433571 0.2 10041306
20:00+11sse01480 0.2 1007175
13 may, thu
thu1323:00+10nnw33484 0.2 100887
02:00+8nw33490 0.0 100835
05:00+7nw33491 0.0 100828
08:00+11n33361 0.0 1009728
11:00+14se12272 0.0 10071999
14:00+15ssw543276 0.2 10052017
17:00+10sse336178 0.6 1008471
20:00+9sse226811 0.4 1010187
14 may, fri
fri1423:00+8wnw11620 0.5 101071
02:00+7nw22550 0.0 100918
05:00+6nnw33500 0.0 101019
08:00+10n23320 0.0 1011748
11:00+14sse22220 0.0 10091773
14:00+16s432436 0.1 10062371
17:00+11s345317 0.8 1009390
20:00+9sse126524 0.3 1011161
15 may, sat
sat1523:00+9ssw11614 0.4 101177
02:00+8ssw11582 0.0 101116
05:00+7sw11625 0.1 101210
08:00+10se11500 0.3 1013512
11:00+14s34386 0.8 10111768
14:00+14s443769 0.6 10092103
17:00+12se01481 1.5 1009705
20:00+10sse336446 1.2 1012243
16 may, sun
sun1623:00+8s2270100 2.4 1015108
02:00+7nnw00704 0.2 101425
05:00+7nne11692 0.2 101510
08:00+11e00530 0.0 1015494
11:00+15s22383 0.1 10131480
14:00+16sw443396 0.2 10102359
17:00+14se344698 0.9 10121092
20:00+11s126288 1.2 1015160